Retour au catalogue

HAWK-10C

ActifScienceSSO
NORAD 60575·PAYLOAD·🇺🇸 United States

Lancé Aug 16, 2024 depuis Vandenberg Space Force Base

Loading…

Prochains Passages (prochaines 24 heures)

TLE

FraisSource: Space-Track

Époque: Sep 14, 2026, 11:49 UTC

1 60575U 24149DM  26257.49271953  .00001633  00000-0  14791-3 0  9993
2 60575  97.6664 330.3604 0004911 110.6623 249.5126 14.96729555113340

Suivez HAWK-10C en temps réel avec AllMySat

Download on the App Store